Home   Weather   San Pedro Sula   Past weeks

Flag for Honduras Past Weather in San Pedro Sula, Honduras — Yesterday and Last 2 Weeks

Now
79 °F

Passing clouds.


Feels Like: 82 °F
Forecast: 76 / 94 °F
Wind: 9 mph from Southwest

Location: La Mesa San Pedro Sula

Current Time: Aug 30, 2016 at 3:22:01 AM

Latest Report: Aug 30, 2016 at 2:00 AM


Visibility: N/A

Pressure: 29.83 "Hg

Humidity: 89%

Dew Point: 75 °F

Location of San Pedro SulaLocation

Past Weather in San Pedro Sula — Graph

°F

San Pedro Sula Temperature Yesterday

Maximum temperature yesterday: 93 °F (at 12:00 PM)
Minimum temperature yesterday: 75 °F (at 6:00 AM)
Average temperature yesterday: 84 °F

High & Low Weather Summary for the Past Weeks

 TemperatureHumidityPressure
High95 °F (Aug 28, 1:00 PM)100% (Aug 15, 5:00 AM)30.12 "Hg (Aug 15, 5:00 AM)
Low70 °F (Aug 17, 1:00 AM)47% (Aug 21, 1:00 PM)29.74 "Hg (Aug 29, 4:00 PM)
Average82 °F88%29.90 "Hg
* Reported Aug 15 5:00 AM — Aug 30 2:00 AM, San Pedro Sula, Weather by CustomWeather, © 2016

Note: Actual official high and low records may vary slightly from our data, if they occured in-between our weather recording intervals... More about our weather records

Advertising

San Pedro Sula Weather History for the Previous 24 Hours

Scroll right to see more
 ConditionsComfort  
Time TempWeatherWind HumidityBarometerVisibility
2:00 AM
Tue, Aug 30
79 °FPassing clouds.9 mph89%29.83 "HgN/A
1:00 AM81 °FPassing clouds.12 mph84%29.86 "HgN/A
12:00 AM82 °FPassing clouds.8 mph89%29.89 "HgN/A
11:00 PM
Mon, Aug 29
81 °FPassing clouds.3 mph100%29.89 "HgN/A
10:00 PM81 °FPassing clouds.3 mph94%29.86 "HgN/A
9:00 PM81 °FPassing clouds.2 mph94%29.86 "HgN/A
8:00 PM82 °FPassing clouds.2 mph94%29.86 "HgN/A
7:00 PM82 °FPassing clouds.5 mph94%29.83 "HgN/A
5:00 PM90 °FScattered clouds.15 mph67%29.77 "HgN/A
4:00 PM93 °FScattered clouds.17 mph59%29.74 "HgN/A
3:00 PM93 °FPassing clouds.13 mph63%29.77 "HgN/A
2:00 PM93 °FPassing clouds.12 mph59%29.77 "HgN/A
1:00 PM91 °FPassing clouds.6 mph67%29.80 "HgN/A
12:00 PM93 °FPassing clouds.No wind67%29.83 "HgN/A
11:00 AM90 °FPassing clouds.6 mph71%29.86 "HgN/A
10:00 AM88 °FPassing clouds.5 mph75%29.86 "HgN/A
9:00 AM86 °FPassing clouds.5 mph79%29.89 "HgN/A
8:00 AM82 °FScattered clouds.No wind74%29.89 "HgN/A
7:00 AM79 °FPartly sunny.6 mph84%29.89 "HgN/A
6:00 AM75 °FPartly sunny.3 mph100%29.86 "HgN/A
5:00 AM77 °FPassing clouds.5 mph100%29.86 "HgN/A
4:00 AM77 °FPassing clouds.3 mph100%29.83 "HgN/A
3:00 AM79 °FPassing clouds.3 mph100%29.83 "HgN/A
Weather by CustomWeather, © 2016

See weather overviewHow to use our weather pages